Location: ??? ?????
(30.6482°N, 60.5850°E)
Time: 18:45:12
(UTC+00:00)

SJ-6B - Pass Details

Date: 09 April 2020
Orbit: 509 x 582 km, 97.6° (Epoch: 05 June)

Event Time Altitude Azimuth Distance (km) Brightness Sun altitude
Exits shadow 15:28:14 24° 124° (SE) 1,213 4.0 -14.7°
Maximum altitude 15:30:05 37° 74° (ENE) 906 3.5 -15.0°
Drops below altitude 10° 15:33:54 10° 7° (N) 1,902 5.7 -15.8°
Sets 15:36:10 0° 359° (N) 2,805 6.7 -16.3°
